sat.trackr.live / text

‹ back to catalog

STARLINK-32574

NORAD 61954 · 2024-209R

PAYLOAD ACTIVE UNKNOWN

§ Identity

Operator
Country
US
Launch date
2024-11-14
Launch site
AFWTR
Launch vehicle
Mass (kg)
RCS (m²)

Purposes: comms

External: N2YO · Heavens-Above · Gunter

§ Orbital elements

Epoch: 2026-09-21T09:13:05.419200Z

Period
93.85 min
Inclination
53.1605°
Eccentricity
0.0001322
Mean motion
15.34406505 rev/d
Perigee alt
461.8 km
Apogee alt
463.6 km
Semi-major
6,840.8 km
B*
6.8361e-4
RAAN
303.8199°
Arg perigee
112.0231°
Mean anomaly
248.0912°
Rev number
10,501

§ Raw data

STARLINK-325741 61954U 24209R   26264.38409050  .00022796  00000+0  68361-3 0  99932 61954  53.1605 303.8199 0001322 112.0231 248.0912 15.34406505105014

JSON: /api/v1/satellites/61954 · /tle

For live sub-satellite position, see the globe view (requires WebGL).

§ Visibility from observer

Set your observer location to see the next 7 days of passes ≥ 10°. The values pass through the URL so the page stays shareable.

No JS? Fill the form by hand. The geolocation button needs JavaScript.